Content
SEND FEEDBACK

Daily
Averages
Monthly
Summary
United States of America

PYGA BEACH, GUAM


Home > North America > United States > Guam
Elevation: 6 meters     Latitude: 13 17N     Longitude: 144 39E

WEATHER
 
SELECT A DAY
Number of Records: 342,273;   Date Range: 1/1/95 - 8/30/14
 
SHARE

PRINT THIS DATA

[ ← Previous Day ]
WEATHER ALMANAC - 21 FEBRUARY, 2014
[ Next Day → ]
[ °F ]   °C
Weather ElementAverageHighLow
Temperature26.6 °C29 °C (10:58 am)23 °C (2:58 am)
Dewpoint24.4 °C25 °C (10:58 am)20 °C (2:58 am)
Humidity88.1 %100 % (5:58 am)79 % (10:58 am)
Barometer1010.5 hPa1012.5 hPa (11:03 am)1008.5 hPa (2:58 pm)
Wind Speed10.5 km/h16.7 km/h (4:43 pm)
Weather ElementAverage
Visibility16.1 km
Wind DirectionENE (57.4 °)

Weather ElementTotal
Precipitation---
Cooling Degree Days7.7 (Base 18.3)
Growing Degree Days16 (Base 10)
Averaged from 43 records on 21 February, 2014
WEATHER CONDITIONS BREAKOUT
WIND DIRECTION BREAKOUT
WEATHER BY HOUR - 21 FEBRUARY, 2014
[ °F ]   °C
Local TimeTemperatureDewpointHumidityBarometerVisibilityWind DirectionWind SpeedGust SpeedPrecipitationEventsConditions
1:58 AM24 °C22 °C89 %1009.5 hPa16.1 kmCalmClear
2:58 AM23 °C20 °C83 %1009.5 hPa16.1 kmCalmClear
3:58 AM23 °C21 °C88 %1010.2 hPa16.1 kmCalmClear
4:58 AM23 °C22 °C94 %1009.5 hPa16.1 kmENE (70°)7.4 km/hClear
5:58 AM23.7 °C23.7 °C100 %1009.8 hPa16.1 kmEast (80°)5.6 km/hClear
6:58 AM24 °C23.8 °C99 %1010.5 hPa16.1 kmNE (50°)3.7 km/hPartly Cloudy
7:58 AM25.2 °C24.8 °C98 %1011.2 hPa16.1 kmENE (60°)7.4 km/hPartly Cloudy
8:58 AM26.4 °C24.9 °C91 %1011.5 hPa16.1 kmEast (80°)7.4 km/hClear
9:58 AM28 °C24.2 °C80 %1011.5 hPa16.1 kmVariable11.1 km/hPartly Cloudy
10:58 AM29 °C25 °C79 %1011.2 hPa16.1 kmVariable7.4 km/hMostly Cloudy
11:03 AM28 °C25 °C84 %1012.5 hPa16.1 kmEast (90°)9.3 km/hMostly Cloudy
11:08 AM28 °C25 °C84 %1012.2 hPa16.1 kmEast (100°)11.1 km/hMostly Cloudy
11:18 AM28 °C25 °C84 %1012.2 hPa16.1 kmESE (110°)9.3 km/hScattered Clouds
11:58 AM27.9 °C24.5 °C82 %1010.5 hPa16.1 kmESE (120°)11.1 km/hPartly Cloudy
12:58 PM27.6 °C24.6 °C84 %1010.2 hPa16.1 kmNE (50°)7.4 km/hScattered Clouds
1:03 PM27 °C25 °C89 %1010.8 hPa16.1 kmEast (80°)7.4 km/hMostly Cloudy
1:08 PM27 °C25 °C89 %1010.8 hPa16.1 kmESE (110°)9.3 km/hScattered Clouds
1:13 PM27 °C25 °C89 %1010.8 hPa16.1 kmEast (80°)9.3 km/hMostly Cloudy
1:23 PM28 °C25 °C84 %1010.5 hPa16.1 kmEast (100°)7.4 km/hMostly Cloudy
1:58 PM28 °C24.8 °C83 %1009.5 hPa16.1 kmESE (120°)9.3 km/hScattered Clouds
2:13 PM28 °C25 °C84 %1009.8 hPa16.1 kmVariable9.3 km/hMostly Cloudy
2:18 PM28 °C25 °C84 %1009.8 hPa16.1 kmENE (60°)13 km/hScattered Clouds
2:28 PM28 °C25 °C84 %1009.8 hPa16.1 kmENE (70°)13 km/hMostly Cloudy
2:58 PM27.7 °C24.6 °C83 %1008.5 hPa16.1 kmEast (80°)13 km/hMostly Cloudy
3:03 PM28 °C24 °C79 %1009.5 hPa16.1 kmENE (70°)11.1 km/hMostly Cloudy
3:13 PM27 °C24 °C84 %1009.5 hPa16.1 kmENE (70°)13 km/hScattered Clouds
3:58 PM27.4 °C24.3 °C83 %1008.5 hPa16.1 kmENE (70°)13 km/hPartly Cloudy
4:23 PM28 °C25 °C84 %1009.5 hPa16.1 kmENE (70°)9.3 km/hMostly Cloudy
4:43 PM27 °C25 °C89 %1009.5 hPa16.1 kmENE (70°)16.7 km/hOvercast
4:58 PM27 °C25 °C89 %1008.5 hPa16.1 kmENE (60°)11.1 km/hScattered Clouds
5:58 PM26.7 °C24.9 °C90 %1009.5 hPa16.1 kmNE (40°)14.8 km/hPartly Cloudy
6:23 PM27 °C25 °C89 %1010.2 hPa16.1 kmNE (50°)13 km/hMostly Cloudy
6:33 PM26 °C25 °C94 %1010.2 hPa16.1 kmNE (50°)13 km/hScattered Clouds
6:58 PM26.3 °C24.7 °C91 %1009.5 hPa16.1 kmNE (40°)13 km/hScattered Clouds
7:58 PM26.1 °C24.6 °C91 %1010.2 hPa16.1 kmNE (40°)14.8 km/hScattered Clouds
8:18 PM26 °C25 °C94 %1011.5 hPa16.1 kmNE (40°)13 km/hMostly Cloudy
8:23 PM26 °C25 °C94 %1011.5 hPa16.1 kmNE (40°)16.7 km/hMostly Cloudy
8:28 PM26 °C25 °C94 %1011.9 hPa16.1 kmNE (40°)14.8 km/hMostly Cloudy
8:33 PM26 °C25 °C94 %1011.9 hPa16.1 kmNE (40°)16.7 km/hScattered Clouds
8:58 PM26 °C24.6 °C92 %1011.2 hPa16.1 kmNE (40°)14.8 km/hPartly Cloudy
9:58 PM25.9 °C24.4 °C91 %1011.2 hPa16.1 kmNE (40°)11.1 km/hMostly Cloudy
10:58 PM25.6 °C24.1 °C91 %1011.5 hPa16.1 kmNE (50°)11.1 km/hMostly Cloudy
11:58 PM25.7 °C23.8 °C89 %1011.2 hPa16.1 kmNE (40°)16.7 km/hMostly Cloudy
Hourly data recorded from PGUA, located 0 kilometers away from Pyga Beach, Guam







STORIES FROM OUR PARTNERS